Temp
50 48 47 47 46 46 46 45 46 46 45 45 46 45 44 42 42 43 40 40 40 43
48 47 46 46 46 45 45 50 45 45 44 44 44 44 43 41 41 40 39 39 39 39
46 46 46 45 44 45 45 45 44 44 43 43 43 42 41 40 40 40 40 43 39 38
45 45 45 44 44 43 43 43 43 43 42 42 42 41 40 39 40 39 39 37 38 39
45 44 43 42 43 43 42 43 42 42 41 42 41 40 39 38 38 37 36 36 37 37
42 42 41 41 42 43 42 41 41 41 40 41 40 39 39 38 38 36 36 35 35 36
41 40 40 41 41 42 42 41 40 40 40 39 40 40 40 39 37 35 36 36 35 36
40 41 41 41 41 41 40 40 40 38 38 38 40 44 42 41 38 34 33 34 36 37
41 41 41 41 40 39 38 38 37 36 36 35 42 45 46 45 39 35 33 32 35 36
41 41 40 40 39 37 36 34 34 34 35 35 36 44 45 45 40 34 32 33 34 35
41 40 39 37 36 34 34 33 33 33 34 33 37 43 44 44 38 33 32 32 33 33
39 38 37 35 33 33 32 32 32 33 33 32 33 41 42 42 36 32 32 33 34 35
38 37 35 33 32 32 32 33 34 34 33 35 32 38 40 39 35 33 34 35 35 37
37 36 34 32 32 32 31 30 30 30 30 30 31 32 39 39 35 34 33 31 31 33
MSLP
1015.19 1015.77 1016.22 1016.48 1016.72 1016.88 1016.98 1017.06 1017.05 1016.99 1016.85 1016.72 1016.46 1016.36 1016.20 1016.10 1015.95 1015.75 1015.63 1015.44 1015.14 1014.76
1015.71 1016.16 1016.53 1016.69 1016.82 1017.02 1017.09 1017.11 1017.07 1016.98 1016.99 1016.81 1016.60 1016.48 1016.32 1016.14 1015.94 1015.73 1015.43 1015.13 1014.82 1014.55
1016.07 1016.41 1016.60 1016.80 1017.02 1017.08 1017.17 1017.18 1017.09 1017.09 1017.02 1016.90 1016.75 1016.59 1016.37 1016.14 1015.83 1015.57 1015.26 1014.89 1014.67 1014.41
1016.32 1016.52 1016.76 1016.95 1017.09 1017.18 1017.22 1017.20 1017.22 1017.21 1017.11 1016.97 1016.74 1016.45 1016.21 1015.91 1015.50 1015.22 1014.92 1014.67 1014.46 1014.13
1016.40 1016.64 1016.93 1017.09 1017.18 1017.18 1017.23 1017.30 1017.34 1017.25 1017.08 1016.80 1016.47 1016.13 1015.84 1015.57 1015.21 1014.95 1014.77 1014.46 1014.13 1013.80
1016.67 1016.87 1017.10 1017.20 1017.22 1017.24 1017.32 1017.34 1017.25 1017.14 1016.90 1016.57 1016.16 1015.75 1015.35 1015.07 1014.76 1014.55 1014.35 1014.11 1013.92 1013.56
1016.89 1017.02 1017.13 1017.17 1017.25 1017.32 1017.31 1017.27 1017.19 1016.99 1016.68 1016.27 1015.81 1015.44 1015.00 1014.61 1014.32 1014.06 1013.85 1013.78 1013.65 1013.26
1016.90 1016.98 1017.10 1017.25 1017.27 1017.28 1017.26 1017.21 1017.08 1016.86 1016.47 1016.01 1015.62 1015.06 1014.56 1014.14 1013.76 1013.58 1013.51 1013.40 1013.21 1012.82
1016.95 1017.07 1017.22 1017.26 1017.31 1017.33 1017.33 1017.22 1017.02 1016.77 1016.41 1015.90 1015.41 1014.88 1014.33 1013.76 1013.29 1013.16 1013.16 1013.02 1012.64 1012.26
1017.04 1017.27 1017.34 1017.38 1017.47 1017.54 1017.50 1017.32 1017.04 1016.59 1016.19 1015.78 1015.26 1014.67 1013.96 1013.37 1012.93 1012.81 1012.73 1012.41 1011.97 1011.54
1017.19 1017.30 1017.42 1017.61 1017.78 1017.74 1017.52 1017.34 1016.95 1016.46 1015.97 1015.64 1015.15 1014.43 1013.75 1013.06 1012.57 1012.33 1012.10 1011.79 1011.42 1010.98
1017.29 1017.44 1017.62 1017.87 1017.90 1017.71 1017.52 1017.14 1016.69 1016.15 1015.87 1015.63 1015.08 1014.36 1013.55 1012.82 1012.38 1012.18 1011.82 1011.37 1011.02 1010.64
1017.39 1017.59 1017.77 1017.94 1017.89 1017.55 1017.29 1016.92 1016.40 1016.09 1015.86 1015.42 1014.85 1014.32 1013.74 1013.10 1012.57 1011.89 1011.34 1010.89 1010.58 1010.16
1017.52 1017.69 1017.77 1017.81 1017.65 1017.40 1016.99 1016.62 1016.45 1016.23 1015.63 1015.12 1014.65 1014.19 1013.63 1013.03 1012.35 1011.82 1011.07 1010.58 1010.01 1009.36
Wind_Speed
8 5 4 5 4 3 3 2 3 4 4 5 5 5 5 3 4 5 5 8 6 7
7 7 6 6 5 3 3 2 4 4 5 6 6 6 6 4 6 5 5 6 6 5
7 6 6 6 6 5 3 3 4 4 5 6 6 6 6 5 6 6 5 7 7 5
6 6 6 5 5 4 3 4 4 5 6 6 6 6 6 6 7 6 7 5 6 10
6 6 6 5 4 3 3 3 5 6 6 6 6 6 7 7 7 6 6 6 7 10
6 6 5 4 2 3 4 5 5 5 6 7 7 7 7 7 7 6 6 5 6 11
6 5 4 2 2 3 3 5 6 6 7 7 8 8 8 7 6 6 5 5 5 11
5 4 3 2 3 3 4 5 6 6 7 7 7 7 11 10 7 6 5 5 7 10
4 3 2 2 3 5 6 6 6 7 6 7 8 19 23 19 10 5 5 6 9 10
3 3 2 3 4 5 6 6 7 7 6 8 9 20 23 24 11 5 5 7 9 10
3 3 3 4 4 5 4 6 6 7 7 7 9 22 23 25 9 6 7 8 8 9
3 3 3 4 5 5 4 5 5 6 7 8 9 19 23 21 10 6 8 7 6 10
2 2 3 4 6 3 4 5 6 9 7 11 8 15 24 20 10 12 9 9 9 18
3 2 3 4 3 4 5 6 7 7 6 6 7 9 21 23 11 9 10 9 9 10
Wind_Direction
95 96 97 103 97 86 81 82 33 26 22 2 357 348 345 331 322 314 310 301 298 300
97 99 104 93 87 84 58 61 34 22 2 348 342 339 336 327 316 311 292 289 288 294
111 109 103 91 83 72 51 32 19 356 344 334 333 329 328 315 304 302 302 308 317 306
111 102 93 91 80 70 52 17 360 340 331 324 320 316 313 300 291 298 299 313 309 311
108 99 93 85 77 62 28 355 341 331 320 310 301 296 295 295 296 291 298 290 310 315
105 101 98 94 70 30 2 341 328 316 305 299 294 294 289 278 281 281 278 291 308 309
113 115 120 108 47 10 347 324 313 304 298 292 296 300 289 284 279 276 290 291 295 308
124 122 110 64 17 339 326 317 307 305 301 301 312 310 318 314 296 282 279 278 305 304
119 107 84 37 346 335 331 321 310 308 303 309 317 318 320 320 312 286 288 294 309 295
119 90 52 9 358 339 323 317 310 308 312 313 311 317 322 320 315 292 268 286 289 294
111 82 32 9 344 326 309 309 307 307 310 310 307 319 321 323 315 279 271 265 268 283
94 53 18 336 319 307 297 303 296 316 310 303 301 323 333 330 328 310 293 275 280 303
74 30 327 309 306 276 282 289 318 312 299 302 318 334 336 339 328 318 320 321 319 310
40 342 296 300 283 290 314 324 312 290 287 298 314 328 334 333 328 321 320 315 306 299